カタログに戻る

GARAI-B

運用中科学SSO
NORAD 68463·PAYLOAD·🇸🇪 Sweden

打ち上げ Mar 30, 2026 から Vandenberg Space Force Base

Loading…

次のパス (今後24時間)

TLE

最新Source: Space-Track

元期: Sep 14, 2026, 19:41 UTC

1 68463U 26067AZ  26257.82024756  .00004007  00000-0  22142-3 0  9999
2 68463  97.4630 214.7569 0004991 109.5674 250.6097 15.14453371 25524

AllMySatでGARAI-Bをリアルタイム追跡

Download on the App Store